Weather History for KMQY - November, 2013

Change the Weather History Date:

Friday, November 8, 2013

  Actual Average Record
Temperature  
Mean Temperature 42 °F -  
Max Temperature 57 °F 58 °F 84 °F (2005)
Min Temperature 28 °F 43 °F 28 °F (2013)
Degree Days  
Heating Degree Days 22    
Moisture  
Dew Point 29 °F    
Average Humidity 78    
Maximum Humidity 100    
Minimum Humidity 24    
Precipitation  
Precipitation 0.00 in - - ()
Sea Level Pressure  
Sea Level Pressure 30.38 in    
Wind  
Wind Speed 1 mph (ENE)    
Max Wind Speed 7 mph    
Max Gust Speed -    
Visibility 8 miles    
Events Fog    
Averages and records for this station are not official NWS values.
T = Trace of Precipitation, MM = Missing Value Source: NWS Daily Summary

Daily Weather History Graph

Daily Weather History Graph

Search for Another Location

Airport or City:

Trip Planner

Search our weather history database for the weather conditions in past years. The results will help you decide how hot, cold, wet, or windy it might be!

Date:

Astronomy

Nov. 08, 2013 Rise Set
Actual Time 6:15 AM CST 4:43 PM CST
Civil Twilight 5:48 AM CST 5:10 PM CST
Nautical Twilight 5:18 AM CST 5:40 PM CST
Astronomical Twilight 4:48 AM CST 6:11 PM CST
Moon 11:10 AM CST (11/8) 10:03 PM CST (11/8)
Length of Visible Light 11h 21m
Length of Day
10h 27m
Waxing Crescent, 33% of the Moon is Illuminated
Nov 8
Waxing Crescent
Nov 9
First Quarter
Nov 17
Full
Nov 25
Last Quarter
Dec 2
New

Hourly Weather History & Observations

Time (CST) Temp. Windchill Dew Point Humidity Pressure Visibility Wind Dir Wind Speed Gust Speed Precip Events Conditions
12:56 AM 32.0 °F - 31.1 °F 96% 30.39 in 10.0 mi Calm Calm - N/A   Clear
1:56 AM 31.1 °F - 31.1 °F 100% 30.38 in 10.0 mi Calm Calm - N/A   Clear
2:56 AM 30.0 °F - 30.0 °F 100% 30.40 in 10.0 mi Calm Calm - N/A   Clear
3:56 AM 30.0 °F - 30.0 °F 100% 30.40 in 10.0 mi Calm Calm - N/A   Clear
4:04 AM 28.4 °F - 28.4 °F 100% 30.36 in 4.0 mi Calm Calm - N/A   Scattered Clouds
4:06 AM 28.4 °F - 28.4 °F 100% 30.37 in 1.2 mi Calm Calm - N/A   Mostly Cloudy
4:08 AM 30.2 °F - 30.2 °F 100% 30.37 in 0.8 mi Calm Calm - N/A   Mostly Cloudy
4:12 AM 30.2 °F - 30.2 °F 100% 30.37 in 0.2 mi Calm Calm - N/A Fog Light Freezing Fog
4:22 AM 30.2 °F - 30.2 °F 100% 30.37 in 0.2 mi Calm Calm - N/A Fog Light Freezing Fog
4:46 AM 28.4 °F - 28.4 °F 100% 30.38 in 0.2 mi Calm Calm - N/A Fog Light Freezing Fog
4:49 AM 28.4 °F - 28.4 °F 100% 30.38 in 0.8 mi Calm Calm - N/A   Overcast
4:56 AM 30.0 °F - 30.0 °F 100% 30.43 in 10.0 mi Calm Calm - N/A   Mostly Cloudy
5:07 AM 28.4 °F - 28.4 °F 100% 30.38 in 8.0 mi Calm Calm - N/A   Scattered Clouds
5:56 AM 29.1 °F - 29.1 °F 100% 30.44 in 10.0 mi Calm Calm - N/A   Clear
6:56 AM 30.0 °F - 30.0 °F 100% 30.45 in 10.0 mi Calm Calm - N/A   Clear
7:56 AM 36.0 °F - 34.9 °F 96% 30.47 in 10.0 mi Calm Calm - N/A   Clear
8:56 AM 43.9 °F 41.3 °F 34.0 °F 68% 30.46 in 10.0 mi East 4.6 mph - N/A   Clear
9:56 AM 50.0 °F - 30.0 °F 46% 30.47 in 10.0 mi ENE 5.8 mph - N/A   Clear
10:56 AM 54.0 °F - 28.0 °F 37% 30.45 in 10.0 mi NE 5.8 mph - N/A   Clear
11:56 AM 54.9 °F - 25.2 °F 32% 30.42 in 10.0 mi North 6.9 mph - N/A   Clear
12:56 PM 55.9 °F - 23.0 °F 28% 30.39 in 10.0 mi North 6.9 mph - N/A   Clear
1:56 PM 57.9 °F - 24.1 °F 27% 30.37 in 10.0 mi East 4.6 mph - N/A   Clear
2:56 PM 57.9 °F - 21.0 °F 24% 30.35 in 10.0 mi Calm Calm - N/A   Clear
3:56 PM 54.9 °F - 21.0 °F 27% 30.34 in 10.0 mi ESE 3.5 mph - N/A   Clear
4:56 PM 48.9 °F - 25.2 °F 40% 30.34 in 10.0 mi Calm Calm - N/A   Clear
5:56 PM 41.9 °F - 31.1 °F 66% 30.34 in 10.0 mi Calm Calm - N/A   Clear
6:56 PM 39.9 °F - 30.0 °F 68% 30.33 in 10.0 mi Calm Calm - N/A   Clear
7:56 PM 36.9 °F - 32.0 °F 83% 30.32 in 10.0 mi Calm Calm - N/A   Clear
8:56 PM 36.0 °F - 32.0 °F 86% 30.32 in 10.0 mi Calm Calm - N/A   Clear
9:56 PM 36.0 °F - 31.1 °F 82% 30.33 in 10.0 mi Calm Calm - N/A   Clear
10:56 PM 34.0 °F - 32.0 °F 92% 30.32 in 10.0 mi Calm Calm - N/A   Clear
11:56 PM 32.9 °F - 32.0 °F 96% 30.32 in 10.0 mi Calm Calm - N/A   Clear